Home   Weather   Uroševac   Past weeks

Flag for Kosovo Past Weather in Uroševac, Kosovo — Yesterday and Last 2 Weeks

Now
27 °F

Scattered clouds.


Feels Like: 27 °F
Forecast: 13 / 37 °F
Wind: No wind

Location: Skopje-Petrovec

Current Time: Dec 4, 2016 at 9:19:50 am

Latest Report: Dec 4, 2016 at 9:00 am


Visibility: N/A

Pressure: 30.45 "Hg (28.29 "Hg at 582m altitude)

Humidity: 86%

Dew Point: 23 °F

Location of UroševacLocation

Past Weather in Uroševac — Graph

°F

Uroševac Temperature Yesterday

Maximum temperature yesterday: 48 °F (at 12:30 pm)
Minimum temperature yesterday: 27 °F (at 9:00 pm)
Average temperature yesterday: 38 °F

High & Low Weather Summary for the Past Weeks

 TemperatureHumidityPressure
High59 °F (Nov 19, 2:30 pm)100% (Nov 19, 7:30 pm)30.42 "Hg (Nov 19, 7:30 pm)
Low19 °F (Dec 1, 2:30 am)37% (Dec 3, 1:00 pm)29.83 "Hg (Dec 2, 12:00 pm)
Average38 °F81%30.20 "Hg
* Reported Nov 19 8:00 am — Dec 4 8:00 am, Uroševac, Weather by CustomWeather, © 2016

Note: Actual official high and low records may vary slightly from our data, if they occured in-between our weather recording intervals... More about our weather records

Advertising

Uroševac Weather History for the Previous 24 Hours

Scroll right to see more
 ConditionsComfort  
Time TempWeatherWind HumidityBarometerVisibility
8:00 am
Sun, Dec 4
25 °FSunny.No wind86%30.42 "Hg10 mi
7:30 am21 °FSunny.No wind93%30.42 "Hg10 mi
7:00 am21 °FSunny.No wind86%30.42 "Hg10 mi
6:30 am21 °FClear.No wind86%30.42 "Hg10 mi
5:30 am21 °FClear.No wind86%30.39 "Hg10 mi
5:00 am21 °FClear.No wind86%30.39 "Hg10 mi
4:30 am23 °FClear.No wind86%30.39 "Hg10 mi
4:00 am23 °FClear.No wind86%30.39 "Hg10 mi
3:30 am23 °FClear.No wind86%30.39 "Hg10 mi
3:00 am23 °FClear.No wind86%30.39 "Hg10 mi
2:30 am23 °FClear.No wind86%30.36 "Hg10 mi
2:00 am23 °FClear.No wind86%30.36 "Hg10 mi
1:30 am23 °FClear.No wind86%30.36 "Hg4 mi
1:00 am25 °FIce fog.No wind86%30.36 "Hg3 mi
12:30 am25 °FClear.2 mph86%30.33 "Hg10 mi
12:00 am25 °FClear.2 mph86%30.33 "Hg10 mi
11:00 pm
Sat, Dec 3
27 °FClear.2 mph80%30.33 "Hg10 mi
10:30 pm27 °FClear.2 mph80%30.33 "Hg10 mi
10:00 pm28 °FClear.2 mph74%30.33 "Hg10 mi
9:30 pm27 °FClear.2 mph86%30.33 "Hg10 mi
9:00 pm27 °FClear.2 mph86%30.33 "Hg10 mi
8:30 pm28 °FClear.No wind80%30.30 "Hg10 mi
8:00 pm28 °FClear.2 mph80%30.30 "Hg10 mi
7:00 pm32 °FClear.1 mph69%30.27 "Hg10 mi
6:30 pm30 °FClear.No wind80%30.27 "Hg10 mi
6:00 pm34 °FClear.1 mph70%30.27 "Hg10 mi
5:30 pm34 °FClear.1 mph70%30.24 "Hg10 mi
5:00 pm36 °FClear.No wind65%30.24 "Hg10 mi
4:30 pm41 °FClear.1 mph53%30.24 "Hg10 mi
3:30 pm48 °FSunny.No wind37%30.21 "Hg10 mi
3:00 pm48 °FSunny.No wind37%30.21 "Hg10 mi
2:30 pm48 °FSunny.No wind37%30.21 "Hg10 mi
2:00 pm48 °FSunny.No wind37%30.21 "Hg10 mi
1:30 pm48 °FSunny.No wind37%30.21 "Hg10 mi
1:00 pm48 °FSunny.No wind37%30.21 "Hg10 mi
12:30 pm48 °FSunny.1 mph40%30.21 "Hg10 mi
12:00 pm46 °FSunny.1 mph43%30.24 "Hg10 mi
11:30 am46 °FSunny.No wind46%30.24 "Hg10 mi
11:00 am45 °FSunny.1 mph49%30.24 "Hg10 mi
10:30 am43 °FSunny.No wind53%30.27 "Hg10 mi
10:00 am43 °FSunny.No wind53%30.27 "Hg10 mi
9:30 am41 °FSunny.1 mph57%30.27 "Hg10 mi
9:00 am39 °FSunny.No wind61%30.24 "Hg10 mi
Weather by CustomWeather, © 2016

See weather overviewHow to use our weather pages